Flag for Germany Weather past 2 weeks in Schwäbisch Hall, Baden-Württemberg, Germany

Now
65 °F

Overcast.


Feels Like: 65 °F
Forecast: 53 / 68 °F
Wind: 2 mph from West

Location: Oehringen

Current Time: Sep 30, 2014 at 8:08:52 PM

Latest Report: Sep 30, 2014 at 7:00 PM


Visibility: 11 mi

Pressure: 30.28 "Hg

Humidity: 80%

Dew point: 59 °F

Location of Schwäbisch HallLocation

Historic Weather in Schwäbisch Hall — Graph

°F

Schwäbisch Hall temperature yesterday

Maximum temperature yesterday: 76 °F (at 4:00 PM)
Minimum temperature yesterday: 52 °F (at 6:00 AM)
Average temperature yesterday: 63 °F

Past Weeks' High & Low Weather Summary

 TemperatureHumidityPressure
High76 °F (Sep 18, 4:00 PM)98% (Sep 20, 6:00 AM)30.37 "Hg (Sep 20, 6:00 AM)
Low42 °F (Sep 24, 7:00 AM)49% (Sep 23, 3:00 PM)29.84 "Hg (Sep 18, 4:00 PM)
Average59 °F82%30.10 "Hg
* Reported Sep 15 7:00 PM — Sep 30 7:00 PM, Schwäbisch Hall, Weather by CustomWeather, © 2014

Note: Actual official high and low records may vary slightly from our data, if they occured in-between our weather recording intervals... More about our weather records

Advertising

Schwäbisch Hall weather history for previous 24 hours

 ConditionsComfort  
Time TempWeatherWind HumidityBarometerVisibility
7:00 PM
Sep 30
65 °FOvercast.2 mph80%30.28 "Hg11 mi
6:00 PM66 °FOvercast.2 mph78%30.28 "Hg12 mi
5:00 PM66 °FOvercast.2 mph78%30.28 "Hg12 mi
4:00 PM66 °FOvercast.2 mph76%30.28 "Hg14 mi
3:00 PM65 °FOvercast.3 mph80%30.29 "Hg16 mi
2:00 PM65 °FOvercast.3 mph83%30.30 "Hg11 mi
1:00 PM64 °FOvercast.3 mph86%30.30 "Hg9 mi
12:00 PM63 °FLight rain. Overcast.2 mph90%30.31 "Hg4 mi
11:00 AM62 °FDrizzle. Low clouds.3 mph91%30.30 "Hg6 mi
10:00 AM62 °FLight freezing rain. Fog.2 mph87%30.30 "Hg2 mi
9:00 AM62 °FLight rain. Overcast.2 mph86%30.28 "Hg4 mi
8:00 AM61 °FOvercast.1 mph87%30.27 "Hg11 mi
7:00 AM62 °FOvercast.1 mph85%30.27 "Hg12 mi
6:00 AM61 °FOvercast.2 mph85%30.27 "Hg12 mi
5:00 AM61 °FOvercast.1 mph87%30.26 "Hg12 mi
4:00 AM62 °FOvercast.1 mph86%30.25 "Hg11 mi
3:00 AM62 °FOvercast.2 mph87%30.26 "Hg11 mi
2:00 AM62 °FOvercast.1 mph86%30.27 "Hg13 mi
1:00 AM62 °FOvercast.1 mph88%30.27 "Hg12 mi
12:00 AM63 °FOvercast.1 mph85%30.27 "Hg12 mi
11:00 PM
Sep 29
63 °FOvercast.1 mph89%30.26 "Hg11 mi
10:00 PM63 °FOvercast.1 mph89%30.26 "Hg11 mi
9:00 PM64 °FOvercast.2 mph86%30.25 "Hg13 mi
8:00 PM65 °FPassing clouds.2 mph83%30.24 "Hg13 mi
Weather by CustomWeather, © 2014

See weather overviewHow to use our weather pages